Total_Precipitation_Accumulation
0.30 0.43 0.83 0.86 0.86 0.87 0.90 0.84 0.81 0.85 0.95 1.07 1.05 0.95 0.92 0.92 0.92 0.87 0.90 0.93 1.00 1.05 1.13 1.25 1.26 1.25 1.24 1.21 1.00 0.76 0.61 0.54 0.50 0.43 0.42 0.48 0.59 0.69 0.61 0.62 0.68 0.79 0.96
0.30 0.48 0.81 0.84 0.92 0.99 1.02 0.92 0.84 0.83 0.92 1.05 1.15 1.09 1.12 1.14 1.13 1.08 1.02 1.04 1.05 1.07 1.13 1.12 1.01 0.90 0.83 0.79 0.69 0.61 0.53 0.39 0.30 0.22 0.16 0.22 0.41 0.58 0.57 0.54 0.64 0.90 1.02
0.31 0.47 0.74 0.90 1.00 1.02 1.03 0.96 0.84 0.83 0.91 1.03 1.16 1.23 1.24 1.25 1.25 1.28 1.22 1.15 1.19 1.12 1.10 1.01 0.79 0.70 0.66 0.59 0.54 0.52 0.47 0.31 0.22 0.16 0.14 0.21 0.34 0.58 0.58 0.58 0.76 0.98 1.04
0.35 0.50 0.65 0.97 1.08 1.01 0.99 0.98 0.87 0.86 0.93 1.03 1.14 1.28 1.30 1.32 1.42 1.49 1.31 1.24 1.24 1.06 0.94 0.86 0.73 0.63 0.56 0.50 0.45 0.43 0.40 0.32 0.22 0.17 0.25 0.32 0.40 0.72 0.78 0.82 0.95 0.95 0.96
0.45 0.57 0.81 1.10 1.19 1.12 1.06 1.06 1.01 0.95 0.97 1.06 1.17 1.32 1.41 1.46 1.51 1.42 1.30 1.17 1.09 0.95 0.86 0.76 0.62 0.54 0.48 0.44 0.42 0.39 0.37 0.28 0.19 0.17 0.27 0.39 0.57 0.98 0.99 1.03 1.06 0.96 0.92
0.56 0.68 0.94 1.18 1.34 1.34 1.24 1.15 1.10 1.04 1.01 1.03 1.17 1.28 1.38 1.51 1.44 1.31 1.23 1.07 0.97 0.89 0.84 0.73 0.60 0.51 0.45 0.39 0.41 0.40 0.34 0.26 0.17 0.19 0.31 0.40 0.57 1.04 1.08 1.11 1.09 1.05 1.02
0.70 0.82 0.99 1.21 1.35 1.39 1.38 1.25 1.14 1.13 1.11 1.09 1.19 1.26 1.38 1.47 1.37 1.31 1.17 1.00 0.94 0.92 0.90 0.80 0.69 0.56 0.48 0.42 0.40 0.36 0.31 0.22 0.15 0.19 0.31 0.41 0.62 1.04 1.19 1.22 1.18 1.09 1.08
0.92 1.09 1.17 1.38 1.37 1.38 1.35 1.30 1.21 1.19 1.19 1.20 1.28 1.29 1.33 1.41 1.35 1.33 1.18 1.06 0.96 0.93 0.91 0.82 0.73 0.64 0.53 0.46 0.42 0.36 0.28 0.19 0.14 0.16 0.28 0.41 0.64 1.01 1.23 1.15 1.13 1.04 1.02
1.32 1.49 1.46 1.48 1.37 1.40 1.38 1.29 1.25 1.21 1.23 1.26 1.31 1.26 1.26 1.26 1.26 1.24 1.11 1.03 1.01 0.96 0.93 0.87 0.77 0.67 0.57 0.48 0.42 0.35 0.26 0.17 0.14 0.15 0.19 0.35 0.59 0.94 1.18 1.21 1.15 1.11 1.12
1.71 1.89 1.87 1.72 1.55 1.45 1.42 1.34 1.30 1.28 1.25 1.23 1.17 0.99 0.96 1.05 1.10 1.06 0.91 0.89 0.90 0.90 0.94 0.91 0.85 0.74 0.61 0.50 0.40 0.32 0.24 0.19 0.15 0.16 0.22 0.34 0.62 0.98 1.22 1.28 1.24 1.17 1.18
2.07 2.18 2.26 2.12 1.87 1.68 1.54 1.38 1.42 1.41 1.31 1.23 1.08 0.90 0.87 0.94 0.97 0.87 0.74 0.73 0.79 0.83 0.89 0.91 0.84 0.75 0.62 0.50 0.42 0.33 0.28 0.23 0.18 0.19 0.24 0.42 0.80 1.09 1.24 1.23 1.19 1.16 1.19
2.13 2.25 2.43 2.33 2.18 2.01 1.75 1.52 1.57 1.56 1.38 1.23 1.03 0.97 0.96 0.95 1.00 0.88 0.78 0.74 0.80 0.78 0.79 0.90 0.89 0.79 0.68 0.52 0.45 0.40 0.35 0.28 0.27 0.24 0.29 0.52 0.92 1.14 1.21 1.14 1.12 1.11 1.11
2.24 2.43 2.56 2.58 2.35 2.26 2.11 1.78 1.61 1.62 1.57 1.44 1.24 1.12 1.10 1.08 1.10 1.10 0.95 0.90 0.90 0.77 0.72 0.72 0.81 0.69 0.60 0.55 0.49 0.43 0.39 0.36 0.34 0.32 0.35 0.50 0.80 1.07 1.21 1.12 1.08 1.09 1.10
2.40 2.48 2.60 2.78 2.64 2.36 2.22 2.06 1.86 1.76 1.71 1.58 1.43 1.38 1.38 1.26 1.10 1.11 1.07 0.95 1.00 0.92 0.81 0.76 0.71 0.67 0.65 0.62 0.56 0.50 0.48 0.46 0.36 0.36 0.39 0.48 0.68 0.93 1.15 1.21 1.17 1.18 1.20
2.42 2.57 2.65 2.75 2.81 2.62 2.42 2.22 2.04 1.90 1.80 1.84 1.78 1.67 1.62 1.53 1.31 1.21 1.18 1.19 1.18 1.13 1.03 0.91 0.85 0.85 0.81 0.79 0.69 0.58 0.55 0.55 0.48 0.42 0.41 0.44 0.52 0.77 1.03 1.23 1.34 1.40 1.44
2.31 2.51 2.66 2.77 2.89 2.88 2.61 2.45 2.27 2.03 1.86 1.89 1.91 1.82 1.85 1.82 1.73 1.63 1.55 1.47 1.41 1.34 1.27 1.15 1.06 1.06 1.03 0.95 0.86 0.71 0.63 0.63 0.63 0.59 0.54 0.50 0.49 0.59 0.88 1.16 1.39 1.55 1.65
2.28 2.52 2.57 2.71 2.92 2.98 2.88 2.72 2.50 2.32 2.05 1.94 1.85 1.82 1.88 1.86 1.84 1.84 1.83 1.82 1.74 1.67 1.56 1.46 1.37 1.31 1.25 1.16 1.03 0.92 0.81 0.74 0.72 0.75 0.73 0.64 0.59 0.58 0.76 1.08 1.32 1.53 1.68
2.31 2.52 2.62 2.68 2.85 2.90 2.94 3.01 2.88 2.73 2.47 2.20 2.04 2.00 1.97 1.94 1.89 1.86 1.81 1.73 1.76 1.89 1.90 1.76 1.61 1.50 1.36 1.29 1.20 1.06 0.90 0.84 0.78 0.79 0.83 0.84 0.78 0.68 0.69 0.91 1.15 1.36 1.52
2.22 2.44 2.64 2.69 2.90 3.00 3.01 3.06 3.06 2.94 2.85 2.66 2.32 2.08 2.07 2.13 2.08 2.00 1.90 1.85 1.87 1.78 1.82 1.87 1.76 1.58 1.47 1.41 1.35 1.25 1.07 0.93 0.86 0.83 0.81 0.83 0.86 0.80 0.73 0.80 0.92 1.07 1.24
2.13 2.32 2.54 2.66 2.86 3.19 3.31 3.28 3.25 3.00 2.78 2.78 2.62 2.36 2.19 2.23 2.29 2.18 1.99 1.98 2.08 1.97 1.82 1.75 1.80 1.72 1.55 1.51 1.51 1.43 1.29 1.15 1.07 0.97 0.91 0.89 0.89 0.87 0.87 0.80 0.79 0.84 0.98
2.09 2.27 2.44 2.59 2.71 2.99 3.21 3.21 3.11 2.97 2.72 2.61 2.58 2.50 2.42 2.37 2.45 2.44 2.22 2.09 2.10 2.00 1.87 1.83 1.84 1.90 1.87 1.77 1.82 1.75 1.59 1.42 1.29 1.17 1.09 1.06 1.00 0.98 0.99 0.98 0.92 0.84 0.85
1.86 2.09 2.33 2.47 2.60 2.66 2.74 2.99 3.15 3.22 3.04 2.77 2.61 2.53 2.45 2.38 2.39 2.41 2.43 2.35 2.23 2.13 2.05 2.03 2.06 2.09 2.12 2.12 2.13 2.13 2.00 1.84 1.50 1.24 1.17 1.14 1.08 1.06 1.05 1.04 0.99 0.92 0.84
1.62 1.88 2.17 2.34 2.49 2.56 2.64 2.93 3.17 3.34 3.17 2.83 2.49 2.36 2.40 2.39 2.39 2.30 2.32 2.43 2.38 2.28 2.14 2.08 2.08 2.12 2.17 2.17 2.18 2.33 2.15 1.83 1.50 1.32 1.15 1.08 1.09 1.11 1.09 1.13 1.15 1.09 1.01
1.44 1.64 1.83 2.06 2.23 2.45 2.59 2.70 2.77 2.90 2.91 2.63 2.49 2.39 2.44 2.48 2.46 2.40 2.34 2.36 2.37 2.28 2.15 2.11 2.06 2.05 2.13 2.16 2.15 2.10 2.00 1.70 1.55 1.44 1.27 1.14 1.12 1.13 1.18 1.19 1.21 1.25 1.25
1.29 1.56 1.72 1.82 2.02 2.24 2.42 2.49 2.66 2.68 2.72 2.78 2.73 2.61 2.51 2.49 2.44 2.39 2.33 2.32 2.26 2.18 2.14 2.19 2.14 2.12 2.14 2.12 2.06 2.02 2.03 1.84 1.60 1.54 1.41 1.25 1.23 1.18 1.24 1.32 1.29 1.29 1.30
1.23 1.40 1.63 1.65 1.75 1.94 2.21 2.43 2.49 2.47 2.52 2.57 2.56 2.51 2.47 2.47 2.43 2.34 2.23 2.18 2.15 2.15 2.14 2.18 2.24 2.20 2.19 2.20 2.14 2.04 2.06 2.06 1.85 1.76 1.66 1.43 1.40 1.32 1.24 1.29 1.33 1.32 1.31